Location: Cary
(35.7910°N, 78.7810°W)
Time: 21:26:32
(UTC-05:00)

N. Korean satellite - Pass Details

Date: 05 December 2021
Orbit: 446 x 492 km, 97.3° (Epoch: 18 January)

Event Time Altitude Azimuth Distance (km) Brightness Sun altitude
Rises 17:39:40 0° 205° (SSW) 2,534 11.0 -7.9°
Reaches altitude 10° 17:42:26 10° 229° (SW) 1,650 10.6 -8.4°
Maximum altitude 17:44:33 15° 266° (W) 1,362 10.1 -8.8°
Drops below altitude 10° 17:46:39 10° 302° (WNW) 1,641 9.8 -9.2°
Sets 17:49:24 0° 327° (NNW) 2,511 10.4 -9.8°
